Date String (YYYY-MM-DD hh:mm:ss) UTC,Instrument flags,Ambient pressure (hPa),Sample flow (lpm),Bypass flow (lpm),Sample temperature (°C),Ambient temperature (°C),ASC tube jacket temperature (°C),LED temperature (°C),Box temperature (°C),Sample RH (%),Span deviation,Mass concentration (μg/m³),Mass concentration (μg/m³),Mass concentration (μg/m³)
DateTimeUTC,F1_M11,P_M11,Q1_M11,Q2_M11,T1_M11,T2_M11,T3_M11,T4_M11,T5_M11,U1_M11,ZSPAN_M11,X2_M11,X0_M11,X1_M11
2023-05-02 03:00:00,,0827.5,5.00,0.00,29.9,28.4,00.0,38.5,31.4,14.0,0000.0,0008.41,0025.71,0005.46
2023-05-02 03:01:00,,0827.8,5.00,0.00,29.9,28.4,00.0,38.5,31.4,14.0,0000.0,0008.60,0026.24,0005.56
2023-05-02 03:02:00,,0827.6,5.00,0.00,29.9,28.4,00.0,38.4,31.4,14.0,0000.0,0008.66,0026.52,0005.63
2023-05-02 03:03:00,,0827.5,5.00,0.00,29.9,28.4,00.0,38.4,31.4,13.9,0000.0,0008.71,0025.28,0005.71
2023-05-02 03:04:00,,0827.5,5.00,0.00,29.9,28.4,00.0,38.4,31.4,13.7,0000.0,0008.80,0026.40,0005.76
2023-05-02 03:05:00,,0827.5,4.99,0.00,29.9,28.3,00.0,38.4,31.4,13.7,0000.0,0008.79,0026.70,0005.82
2023-05-02 03:06:00,,0827.5,5.01,0.00,29.9,28.3,00.0,38.4,31.4,13.7,0000.0,0008.79,0026.13,0005.86
2023-05-02 03:07:00,,0827.6,5.01,0.00,29.9,28.3,00.0,38.4,31.4,13.9,0000.0,0008.88,0026.92,0005.89
2023-05-02 03:08:00,,0827.7,4.99,0.00,29.9,28.3,00.0,38.4,31.4,13.9,0000.0,0008.87,0026.68,0005.91
2023-05-02 03:09:00,,0827.7,4.99,0.00,29.9,28.4,00.0,38.4,31.4,14.1,0000.0,0008.86,0026.04,0005.94
2023-05-02 03:10:00,,0827.7,5.01,0.00,29.9,28.4,00.0,38.4,31.4,14.5,0000.0,0008.84,0026.26,0005.95
2023-05-02 03:11:00,,0827.7,5.01,0.00,29.9,28.4,00.0,38.4,31.4,14.4,0000.0,0008.87,0025.65,0005.98
2023-05-02 03:12:00,,0827.7,4.99,0.00,29.9,28.4,00.0,38.4,31.5,13.8,0000.0,0008.84,0026.33,0005.98
2023-05-02 03:13:00,,0827.7,5.00,0.00,29.9,28.5,00.0,38.4,31.5,14.6,0000.0,0008.86,0026.67,0006.00
2023-05-02 03:14:00,,0827.7,4.99,0.00,30.0,28.5,00.0,38.4,31.5,13.6,0000.0,0008.73,0026.44,0005.94
2023-05-02 03:15:00,,0827.7,5.00,0.00,30.0,28.6,00.0,38.4,31.6,13.6,0000.0,0008.60,0025.70,0005.85
2023-05-02 03:16:00,,0827.7,5.00,0.00,30.0,28.6,00.0,38.4,31.6,13.8,0000.0,0008.59,0025.14,0005.75
2023-05-02 03:17:00,,0827.7,5.00,0.00,30.1,28.7,00.0,38.4,31.7,13.7,0000.0,0008.51,0025.94,0005.68
2023-05-02 03:18:00,,0827.7,5.00,0.00,30.1,28.8,00.0,38.5,31.7,13.6,0000.0,0008.34,0026.17,0005.57
2023-05-02 03:19:00,,0827.7,5.00,0.00,30.1,28.8,00.0,38.5,31.7,13.6,0000.0,0008.28,0025.81,0005.46
2023-05-02 03:20:00,,0827.7,5.00,0.00,30.2,28.9,00.0,38.5,31.8,13.5,0000.0,0008.20,0025.86,0005.34
2023-05-02 03:21:00,,0827.7,5.01,0.00,30.2,28.9,00.0,38.5,31.8,13.3,0000.0,0008.04,0026.86,0005.22
2023-05-02 03:22:00,,0827.8,4.99,0.00,30.2,29.0,00.0,38.5,31.8,13.3,0000.0,0007.81,0025.75,0005.07
2023-05-02 03:23:00,,0827.8,5.00,0.00,30.2,29.0,00.0,38.5,31.9,13.4,0000.0,0007.66,0025.33,0004.95
2023-05-02 03:24:00,,0827.8,5.00,0.00,30.3,29.0,00.0,38.6,31.9,13.6,0000.0,0007.48,0024.50,0004.85
2023-05-02 03:25:00,,0827.8,5.01,0.00,30.3,29.1,00.0,38.6,31.9,13.6,0000.0,0007.53,0024.91,0004.86
2023-05-02 03:26:00,,0827.8,5.01,0.00,30.3,29.1,00.0,38.6,31.9,13.5,0000.0,0007.55,0024.85,0004.91
2023-05-02 03:27:00,,0827.8,4.99,0.00,30.3,29.1,00.0,38.6,31.9,13.5,0000.0,0007.55,0024.67,0004.95
2023-05-02 03:28:00,,0827.8,4.98,0.00,30.3,29.1,00.0,38.6,31.9,13.5,0000.0,0007.62,0023.60,0004.99
2023-05-02 03:29:00,,0827.8,5.00,0.00,30.3,29.0,00.0,38.6,31.9,13.0,0000.0,0007.56,0022.36,0004.98
2023-05-02 03:30:00,,0827.9,5.00,0.00,30.3,29.0,00.0,38.7,31.9,12.5,0000.0,0007.40,0021.57,0004.91
2023-05-02 03:31:00,,0827.8,5.00,0.00,30.4,29.1,00.0,38.7,32.0,12.6,0000.0,0007.30,0021.24,0004.85
2023-05-02 03:32:00,,0827.8,5.00,0.00,30.4,29.1,00.0,38.7,32.0,12.4,0000.0,0007.24,0019.48,0004.79
2023-05-02 03:33:00,,0827.9,5.00,0.00,30.4,29.1,00.0,38.7,31.9,12.2,0000.0,0007.16,0019.18,0004.71
2023-05-02 03:34:00,,0827.9,5.00,0.00,30.4,29.0,00.0,38.7,31.9,12.4,0000.0,0006.99,0018.13,0004.63
2023-05-02 03:35:00,,0827.9,5.00,0.00,30.4,29.0,00.0,38.7,31.9,12.6,0000.0,0006.91,0019.04,0004.54
2023-05-02 03:36:00,,0827.9,5.01,0.00,30.4,29.1,00.0,38.7,31.9,12.4,0000.0,0006.75,0018.74,0004.40
2023-05-02 03:37:00,,0828.0,5.00,0.00,30.4,29.1,00.0,38.7,32.0,12.4,0000.0,0006.58,0018.44,0004.28
2023-05-02 03:38:00,,0828.0,5.00,0.00,30.4,29.0,00.0,38.8,32.0,12.4,0000.0,0006.37,0018.07,0004.12
2023-05-02 03:39:00,,0828.1,5.00,0.00,30.4,29.1,00.0,38.8,32.0,12.4,0000.0,0006.07,0017.61,0003.96
2023-05-02 03:40:00,,0828.0,4.98,0.00,30.4,29.1,00.0,38.8,32.0,12.5,0000.0,0005.98,0018.36,0003.87
2023-05-02 03:41:00,,0828.0,4.99,0.00,30.4,29.1,00.0,38.8,32.0,12.5,0000.0,0006.00,0019.04,0003.84
2023-05-02 03:42:00,,0828.1,5.00,0.00,30.5,29.1,00.0,38.8,32.0,12.4,0000.0,0005.98,0019.63,0003.82
2023-05-02 03:43:00,,0828.1,5.01,0.00,30.5,29.1,00.0,38.8,32.0,12.3,0000.0,0005.94,0019.87,0003.80
2023-05-02 03:44:00,,0828.1,5.01,0.00,30.5,29.1,00.0,38.8,32.0,12.3,0000.0,0005.92,0020.14,0003.80
2023-05-02 03:45:00,,0828.1,5.00,0.00,30.5,29.2,00.0,38.8,32.0,12.4,0000.0,0005.93,0020.53,0003.81
2023-05-02 03:46:00,,0828.1,4.99,0.00,30.5,29.2,00.0,38.8,32.0,12.4,0000.0,0005.93,0019.52,0003.81
2023-05-02 03:47:00,,0828.0,5.00,0.00,30.5,29.2,00.0,38.8,32.1,12.4,0000.0,0005.86,0018.83,0003.80
2023-05-02 03:48:00,,0828.1,5.00,0.00,30.5,29.2,00.0,38.9,32.1,12.3,0000.0,0005.78,0018.63,0003.79
2023-05-02 03:49:00,,0828.0,5.00,0.00,30.5,29.2,00.0,38.9,32.0,12.3,0000.0,0005.72,0018.87,0003.77
2023-05-02 03:50:00,,0828.1,5.01,0.00,30.6,29.2,00.0,38.9,32.1,12.5,0000.0,0005.75,0018.95,0003.77
2023-05-02 03:51:00,,0828.1,4.99,0.00,30.6,29.2,00.0,38.9,32.1,12.4,0000.0,0005.77,0018.00,0003.76
2023-05-02 03:52:00,,0828.1,5.00,0.00,30.6,29.2,00.0,38.9,32.1,12.4,0000.0,0005.71,0018.00,0003.74
2023-05-02 03:53:00,,0828.1,5.01,0.00,30.6,29.2,00.0,38.9,32.1,12.4,0000.0,0005.63,0017.17,0003.74
2023-05-02 03:54:00,,0828.1,5.00,0.00,30.6,29.2,00.0,38.9,32.1,12.4,0000.0,0005.63,0016.78,0003.75
2023-05-02 03:55:00,,0828.1,5.00,0.00,30.6,29.3,00.0,38.9,32.1,12.4,0000.0,0005.58,0017.60,0003.75
2023-05-02 03:56:00,,0828.1,5.00,0.00,30.6,29.3,00.0,39.0,32.2,12.2,0000.0,0005.66,0018.76,0003.75
2023-05-02 03:57:00,,0828.2,4.99,0.00,30.6,29.3,00.0,39.0,32.2,12.4,0000.0,0005.72,0019.08,0003.78
2023-05-02 03:58:00,,0828.1,4.99,0.00,30.6,29.3,00.0,39.0,32.2,12.6,0000.0,0005.74,0019.40,0003.81
2023-05-02 03:59:00,,0828.1,5.00,0.00,30.7,28.5,00.0,38.9,32.1,12.6,0000.0,0005.89,0020.14,0003.86
